Temp
83 83 81 81 82 81 79 79 78 78 77 76 76 76 75 75 74 73 72 73 72 71 72 71 71 71 74 76 75 72 71 70 64 66 63 66 66 68 72 74 76 83 79
83 81 80 80 80 79 77 78 77 75 76 76 76 75 75 74 74 72 72 72 70 70 70 69 69 72 69 71 74 72 70 71 69 68 69 67 65 69 69 72 72 75 85
81 80 78 78 78 77 77 77 76 75 76 77 76 74 73 73 73 72 71 70 69 69 69 67 67 66 65 67 69 71 71 70 70 70 70 69 70 71 70 70 69 70 74
81 80 78 78 78 78 78 77 77 77 76 76 75 74 74 73 72 72 69 68 67 67 67 66 65 63 62 64 67 69 69 68 69 69 70 71 72 74 71 68 68 71 71
80 79 78 79 79 79 78 77 77 76 77 76 75 74 74 74 76 69 68 66 65 64 64 64 63 63 65 65 66 67 67 67 67 68 68 70 71 72 71 73 71 71 72
79 78 79 79 78 78 77 76 76 76 76 74 73 73 73 76 66 64 66 65 63 62 60 61 62 63 63 63 65 66 67 67 67 67 68 69 70 72 73 71 72 69 68
78 79 79 78 77 77 77 76 75 75 74 73 72 72 72 71 64 62 64 63 61 60 60 59 60 65 64 64 66 66 66 68 69 69 68 70 70 72 72 71 72 71 71
77 78 78 77 76 77 76 75 75 75 73 71 71 72 71 70 62 60 62 60 61 59 58 58 59 59 61 65 67 68 69 70 70 71 71 72 74 74 75 73 72 72 74
77 77 77 77 76 76 75 75 74 73 72 71 72 71 69 67 60 58 59 59 59 59 60 59 58 59 63 62 66 67 68 70 68 66 68 68 66 63 66 71 69 69 69
76 78 78 77 76 75 75 74 74 74 72 74 71 72 66 67 61 57 58 59 58 58 60 62 62 61 61 58 64 67 67 69 71 71 69 67 65 69 65 71 72 69 68
77 79 77 76 74 75 74 75 74 72 71 70 70 71 68 65 65 56 55 58 57 58 58 58 57 54 53 53 56 63 64 69 67 70 71 71 72 73 74 71 72 72 70
77 77 76 76 75 77 76 75 73 71 69 68 71 70 71 66 60 58 53 53 56 58 58 58 58 53 52 53 57 54 56 62 66 66 67 68 68 69 69 70 72 71 72
76 76 76 75 74 75 73 72 73 70 69 67 71 69 68 68 66 57 54 54 57 57 60 58 55 53 54 57 55 56 59 63 63 63 61 62 64 66 68 70 71 71 71
73 72 69 69 72 73 75 75 73 75 73 71 69 67 67 65 63 60 55 58 57 59 58 60 58 57 57 58 61 60 60 59 59 59 59 60 62 61 61 63 64 65 62
62 62 63 65 72 72 73 63 72 63 66 69 67 66 62 61 60 48 46 54 53 55 58 61 60 60 59 59 59 59 59 59 59 58 58 58 59 60 59 60 60 60 58
58 61 65 71 76 76 70 61 50 51 47 49 45 56 62 53 46 46 46 47 49 51 58 57 58 60 62 63 64 63 61 59 57 58 58 58 58 57 58 59 58 57 56
60 65 72 72 76 74 71 68 60 56 47 46 45 46 43 47 47 47 47 47 50 57 58 57 60 58 60 61 62 61 62 62 61 59 60 58 56 58 58 57 57 58 55
69 63 74 75 76 74 71 66 65 65 58 64 50 53 47 48 47 49 50 56 62 61 62 60 61 61 61 63 62 65 66 63 64 63 61 60 59 61 60 60 59 58 57
69 74 75 76 78 71 68 72 71 67 59 65 69 55 51 48 47 49 54 61 60 61 61 60 59 60 60 62 63 63 62 63 63 64 63 62 61 58 57 59 59 55 56
61 62 60 62 60 60 67 61 64 65 61 68 68 67 69 63 64 64 62 61 62 61 61 61 60 58 58 58 58 59 60 60 60 61 63 63 63 62 62 61 61 58 59
61 62 58 61 70 66 60 61 58 56 68 65 67 64 50 66 66 65 65 63 63 62 62 61 63 61 60 58 57 56 57 57 57 57 58 61 62 62 62 62 63 63 62
61 63 63 66 68 63 60 58 58 66 67 69 65 66 53 68 67 66 65 65 65 64 65 62 62 62 60 56 53 53 52 51 53 53 53 57 59 61 61 61 62 62 61
70 70 68 64 63 62 63 59 58 66 65 69 71 71 70 68 67 66 66 66 65 65 65 64 62 62 60 56 53 49 47 45 49 50 49 53 56 58 59 59 60 59 58
69 67 66 65 64 64 60 59 62 62 71 72 72 70 69 68 68 65 65 65 65 66 65 64 62 59 56 54 52 49 44 40 46 45 46 51 54 56 57 57 58 56 57
66 61 59 60 62 62 63 61 71 73 72 71 71 70 70 69 67 66 65 64 65 64 64 64 62 56 54 52 49 45 35 33 38 35 44 48 54 56 56 56 55 56 56
68 68 65 64 64 71 71 70 70 69 69 69 69 67 67 67 66 64 64 63 64 64 64 63 62 62 58 53 45 35 34 32 36 33 37 50 55 55 52 51 52 52 53
MSLP
1012.82 1013.18 1013.54 1013.84 1014.24 1014.53 1014.73 1014.75 1014.78 1014.70 1014.80 1014.81 1014.66 1014.44 1014.28 1014.14 1014.06 1013.90 1013.69 1013.30 1012.98 1012.64 1012.26 1011.79 1011.31 1011.18 1010.50 1009.87 1009.40 1009.20 1009.45 1009.54 1009.58 1008.87 1008.58 1006.36 1006.05 1006.97 1007.71 1008.01 1007.12 1006.93 1006.60
1012.71 1013.22 1013.67 1013.75 1014.08 1014.45 1014.62 1014.55 1014.63 1014.63 1014.66 1014.50 1014.23 1014.02 1013.90 1013.83 1013.72 1013.55 1013.26 1012.94 1012.51 1012.02 1011.56 1011.17 1010.55 1010.12 1009.74 1009.27 1008.58 1008.22 1008.27 1008.37 1008.40 1008.02 1007.84 1007.47 1007.04 1007.64 1007.19 1008.74 1008.64 1008.16 1005.93
1012.76 1013.36 1013.54 1013.58 1013.92 1014.21 1014.30 1014.30 1014.28 1014.28 1014.24 1014.03 1013.84 1013.68 1013.68 1013.64 1013.44 1013.15 1012.75 1012.55 1012.26 1011.70 1011.01 1010.30 1009.64 1009.48 1008.69 1008.28 1007.68 1007.09 1006.87 1006.98 1007.14 1006.94 1006.78 1007.00 1006.88 1007.01 1007.28 1008.08 1006.98 1006.63 1005.72
1012.61 1013.11 1013.28 1013.33 1013.66 1013.84 1013.92 1013.92 1013.84 1013.76 1013.72 1013.66 1013.59 1013.50 1013.30 1013.16 1012.94 1012.60 1012.53 1012.09 1011.62 1010.84 1010.04 1009.16 1008.39 1008.23 1007.56 1007.08 1006.38 1005.79 1005.78 1005.81 1005.90 1006.05 1005.77 1005.78 1005.76 1005.47 1006.19 1007.01 1007.12 1006.27 1006.09
1012.27 1012.91 1013.09 1013.22 1013.41 1013.48 1013.58 1013.64 1013.54 1013.51 1013.32 1013.41 1013.32 1013.18 1012.93 1012.64 1012.24 1012.35 1012.14 1011.76 1010.85 1009.56 1008.64 1007.56 1006.81 1006.34 1005.98 1005.58 1005.18 1004.53 1004.64 1004.66 1004.76 1004.72 1004.72 1004.78 1004.60 1004.64 1004.75 1005.03 1005.78 1005.53 1005.86
1012.04 1012.73 1012.90 1013.10 1013.14 1013.19 1013.33 1013.40 1013.35 1013.28 1013.22 1013.22 1013.14 1012.90 1012.64 1012.29 1012.24 1012.08 1011.88 1010.98 1009.63 1008.19 1006.70 1005.51 1004.95 1004.55 1004.10 1003.86 1003.42 1003.41 1003.54 1003.44 1003.53 1003.54 1003.45 1003.43 1003.34 1003.49 1003.56 1003.68 1003.88 1004.55 1005.06
1012.02 1012.47 1012.75 1012.91 1012.90 1012.93 1012.98 1013.02 1013.00 1012.97 1012.98 1013.05 1012.84 1012.60 1012.30 1012.15 1011.92 1011.84 1011.16 1009.90 1008.24 1006.33 1005.11 1004.24 1003.29 1002.81 1002.47 1002.15 1001.51 1001.52 1001.62 1001.89 1002.22 1002.52 1002.53 1002.28 1002.40 1002.46 1002.66 1002.98 1003.00 1003.62 1004.02
1011.89 1012.28 1012.48 1012.55 1012.53 1012.58 1012.66 1012.77 1012.71 1012.65 1012.70 1012.84 1012.56 1012.16 1012.12 1012.00 1011.81 1011.34 1010.38 1009.07 1006.94 1005.38 1004.00 1003.12 1002.37 1001.66 1001.43 1000.73 1000.36 1000.13 1000.01 1000.04 1000.67 1001.19 1001.55 1001.55 1001.36 1001.56 1001.97 1002.32 1002.76 1003.02 1003.25
1011.50 1011.86 1011.96 1012.04 1012.20 1012.32 1012.41 1012.50 1012.50 1012.49 1012.44 1012.42 1012.11 1012.00 1011.88 1011.80 1011.38 1010.85 1010.15 1008.56 1006.25 1004.32 1002.64 1001.97 1001.27 1000.64 999.99 999.58 999.61 999.36 999.06 998.84 998.88 999.62 1000.26 1000.67 1000.95 1001.38 1001.96 1002.49 1002.66 1003.07 1003.01
1011.00 1011.23 1011.40 1011.70 1012.02 1012.17 1012.24 1012.18 1012.21 1012.16 1012.14 1011.90 1011.79 1011.58 1011.64 1011.52 1011.07 1010.60 1010.17 1008.46 1006.46 1004.42 1002.52 1000.88 999.62 999.51 999.03 999.14 999.22 998.60 998.55 998.16 998.38 999.10 999.94 1000.30 1000.63 1001.08 1001.53 1001.88 1002.38 1002.76 1003.02
1010.46 1010.62 1011.08 1011.44 1011.72 1011.80 1011.75 1011.62 1011.68 1011.74 1011.82 1011.76 1011.46 1011.15 1011.42 1011.42 1011.06 1010.44 1010.20 1008.77 1007.24 1005.22 1003.59 1001.94 1000.87 999.84 999.42 999.16 999.02 998.74 998.84 998.10 998.32 998.80 999.43 999.81 1000.22 1000.67 1001.10 1001.52 1001.86 1002.28 1002.48
1010.09 1010.57 1010.88 1011.09 1011.27 1011.00 1011.08 1011.18 1011.05 1011.29 1011.69 1011.46 1011.21 1010.86 1010.89 1011.18 1011.01 1010.56 1010.00 1009.24 1007.94 1006.64 1004.56 1003.22 1002.51 1001.11 1000.32 1000.00 999.64 999.82 999.35 999.11 999.20 999.59 999.82 1000.03 1000.50 1000.82 1001.03 1001.27 1001.58 1001.76 1001.96
1010.16 1010.69 1011.00 1010.94 1010.72 1010.78 1010.62 1010.72 1010.78 1010.82 1011.24 1011.05 1010.87 1010.94 1011.12 1011.12 1011.05 1010.84 1010.19 1009.17 1008.35 1007.18 1006.02 1004.86 1003.65 1002.01 1001.22 1001.03 1000.86 1000.57 1000.31 1000.26 1000.38 1000.82 1001.31 1001.60 1001.69 1001.64 1001.47 1001.44 1001.41 1001.67 1001.94
1010.33 1010.87 1011.76 1012.15 1011.01 1010.62 1010.31 1010.23 1010.44 1010.06 1010.92 1011.16 1011.12 1011.37 1011.30 1011.34 1011.30 1011.24 1010.91 1009.80 1008.97 1007.71 1006.68 1005.92 1005.08 1004.14 1003.19 1002.74 1002.16 1002.12 1002.15 1002.19 1002.22 1002.36 1002.45 1002.62 1002.51 1002.50 1002.58 1002.52 1002.26 1002.05 1002.60
1011.15 1010.61 1010.87 1011.41 1010.41 1010.09 1010.15 1010.61 1010.39 1010.92 1010.98 1011.50 1011.67 1012.01 1012.10 1011.96 1011.86 1011.98 1011.58 1010.45 1009.70 1008.56 1007.31 1006.40 1005.51 1005.06 1004.54 1004.18 1003.92 1003.82 1003.74 1003.70 1003.49 1003.87 1003.53 1003.57 1003.55 1003.48 1003.54 1003.60 1003.53 1003.46 1003.60
1010.90 1011.01 1011.14 1010.54 1009.00 1008.42 1009.42 1010.79 1010.68 1011.58 1011.35 1011.96 1012.19 1012.32 1012.24 1012.10 1011.82 1011.31 1010.98 1010.35 1009.11 1008.56 1008.08 1007.71 1006.71 1006.15 1005.43 1005.09 1004.83 1004.92 1005.01 1004.96 1004.89 1005.08 1004.58 1004.72 1004.94 1004.57 1004.52 1004.34 1004.45 1004.72 1004.55
1010.36 1009.96 1008.73 1009.30 1008.78 1008.54 1008.88 1009.73 1011.15 1012.16 1012.13 1011.82 1012.53 1012.90 1012.48 1011.92 1011.65 1011.37 1010.94 1010.54 1009.74 1009.03 1008.95 1008.66 1008.25 1007.66 1007.04 1006.59 1005.93 1005.76 1005.59 1005.48 1005.52 1005.56 1005.68 1005.80 1005.42 1005.36 1005.18 1004.93 1005.02 1005.65 1005.70
1009.22 1009.15 1008.10 1008.26 1008.40 1008.34 1008.33 1009.14 1009.95 1011.07 1011.35 1011.74 1012.10 1012.66 1012.24 1011.97 1011.66 1011.26 1011.11 1010.48 1010.10 1009.83 1009.76 1009.59 1009.11 1008.76 1008.33 1007.89 1007.29 1006.88 1006.48 1006.32 1006.22 1006.33 1006.34 1006.26 1006.10 1005.84 1005.67 1005.68 1005.87 1005.81 1005.74
1008.91 1008.86 1008.50 1008.55 1008.56 1008.49 1008.82 1008.61 1009.29 1010.18 1010.44 1010.84 1011.16 1012.16 1011.82 1011.78 1011.79 1011.23 1011.26 1011.20 1010.97 1010.66 1010.54 1010.36 1010.19 1009.96 1009.61 1009.22 1008.52 1008.00 1007.80 1007.66 1007.52 1007.27 1007.08 1006.99 1006.86 1006.73 1006.59 1006.25 1006.16 1006.00 1005.74
1009.45 1008.95 1009.22 1009.27 1009.35 1009.48 1010.03 1009.88 1010.32 1010.44 1010.68 1010.57 1011.09 1011.33 1011.02 1011.00 1011.37 1011.26 1011.40 1011.40 1011.40 1011.39 1011.22 1010.95 1010.75 1010.50 1010.34 1010.26 1009.92 1009.54 1009.24 1008.97 1008.72 1008.43 1008.01 1007.50 1007.23 1007.16 1007.00 1006.86 1006.64 1006.50 1006.20
1009.24 1009.32 1008.00 1008.96 1010.12 1010.80 1010.65 1010.75 1010.41 1010.66 1011.03 1010.90 1011.09 1010.96 1011.22 1011.14 1011.12 1011.30 1011.41 1011.50 1011.61 1011.62 1011.46 1011.33 1011.24 1011.12 1010.71 1010.99 1011.04 1011.08 1010.95 1010.76 1010.43 1009.90 1009.31 1008.56 1008.01 1007.81 1007.63 1007.33 1006.98 1006.61 1006.46
1009.94 1008.88 1008.44 1009.43 1009.75 1010.43 1010.42 1010.21 1010.63 1010.72 1010.11 1010.29 1010.83 1010.92 1010.95 1010.89 1011.26 1011.45 1011.56 1011.74 1011.75 1011.75 1011.73 1011.74 1011.72 1011.73 1011.97 1012.32 1012.50 1012.52 1012.41 1012.16 1011.81 1011.46 1010.91 1010.03 1009.31 1008.76 1008.49 1008.08 1007.58 1007.28 1007.18
1009.10 1009.14 1009.47 1009.69 1009.78 1010.06 1009.86 1009.76 1010.91 1010.57 1010.03 1009.97 1010.24 1010.43 1010.74 1011.09 1011.39 1011.72 1011.92 1012.08 1012.04 1012.00 1011.91 1011.99 1012.15 1012.39 1012.62 1013.12 1013.58 1013.95 1014.01 1013.88 1013.24 1012.85 1012.16 1011.23 1010.46 1009.76 1009.26 1008.76 1008.48 1008.15 1008.05
1009.06 1009.22 1009.26 1009.43 1009.75 1009.86 1009.90 1009.78 1009.94 1009.89 1009.77 1009.90 1010.18 1010.60 1011.02 1011.34 1011.58 1012.04 1012.45 1012.61 1012.47 1012.38 1012.26 1012.40 1012.62 1013.20 1013.58 1013.91 1014.32 1014.69 1014.99 1014.84 1014.00 1013.76 1013.21 1012.14 1011.14 1010.40 1009.84 1009.61 1009.41 1009.26 1008.82
1009.61 1009.67 1009.52 1009.50 1009.39 1009.19 1009.37 1009.81 1009.37 1009.48 1009.80 1010.25 1010.56 1010.97 1011.24 1011.64 1011.98 1012.43 1012.85 1013.02 1012.80 1012.82 1012.74 1012.76 1013.13 1013.83 1014.31 1014.62 1014.99 1015.23 1015.35 1015.04 1014.58 1014.37 1013.38 1012.61 1011.58 1010.79 1010.30 1010.14 1009.96 1009.54 1009.26
1009.55 1009.59 1009.28 1008.91 1008.76 1008.71 1008.91 1009.24 1009.70 1010.16 1010.55 1010.94 1011.25 1011.53 1011.89 1012.27 1012.65 1013.18 1013.47 1013.63 1013.46 1013.33 1013.32 1013.36 1013.56 1013.59 1014.02 1014.83 1015.41 1015.72 1015.57 1015.33 1014.94 1014.34 1013.74 1012.46 1011.60 1011.14 1011.37 1011.15 1010.73 1010.41 1010.04
Wind_Speed
8 7 6 5 3 2 2 3 4 5 6 7 8 9 9 9 9 9 10 11 12 14 14 14 15 17 15 14 13 11 11 10 10 7 6 6 7 19 15 12 10 10 7
6 6 4 4 2 1 3 4 5 5 7 9 9 8 9 8 8 8 10 13 15 17 17 16 18 14 18 18 15 16 12 14 12 15 9 7 12 20 10 13 6 11 9
7 6 5 4 3 3 4 4 4 6 8 9 9 9 8 9 10 9 11 12 15 17 19 20 21 20 22 17 19 16 13 11 14 12 11 10 12 8 8 5 6 17 11
7 5 5 4 3 3 3 4 6 6 7 7 8 9 8 8 10 8 11 16 18 19 21 22 22 22 23 21 18 18 15 13 13 13 12 11 10 12 8 7 6 8 8
7 6 5 4 3 2 3 5 6 7 6 7 8 8 9 9 7 10 13 18 20 22 23 23 21 24 33 27 16 15 15 13 13 12 12 10 9 9 8 7 9 8 12
6 7 6 4 3 2 3 5 6 7 6 7 9 9 10 8 10 12 19 20 23 23 22 22 19 27 26 31 33 30 23 16 14 12 11 11 13 9 8 6 5 5 4
7 6 4 4 3 3 3 5 6 5 5 7 8 9 8 9 10 17 28 21 24 22 19 19 18 15 20 19 22 26 28 26 25 13 15 14 11 9 6 7 5 4 5
7 6 5 5 4 2 4 4 5 3 4 6 8 7 7 8 12 18 30 21 21 21 18 17 17 17 17 18 15 14 15 16 17 14 14 13 10 7 3 3 3 3 4
9 7 6 5 4 4 3 3 3 4 5 6 6 6 6 9 14 16 26 20 21 23 15 13 14 15 19 15 13 13 12 13 13 19 16 13 11 7 5 1 3 3 7
7 7 6 5 4 4 3 2 3 3 6 5 7 5 4 9 14 18 22 15 20 17 20 14 18 16 14 6 7 9 10 10 10 11 10 9 6 6 7 6 5 7 5
7 5 5 5 6 5 5 3 4 5 6 7 8 5 6 9 12 19 23 17 16 16 14 12 10 13 10 7 5 7 3 4 6 6 4 4 5 6 6 6 8 8 8
6 6 7 6 5 5 2 3 6 6 8 8 3 5 4 6 9 15 22 20 25 15 16 13 12 16 20 16 11 10 11 6 6 7 5 2 3 3 4 5 4 7 7
6 4 5 6 5 4 5 7 7 7 6 3 3 5 4 6 7 13 19 19 21 14 13 20 21 22 19 18 22 19 15 9 7 8 8 8 7 6 7 4 1 0 2
5 2 6 10 6 6 6 7 6 4 2 2 4 4 4 5 7 9 9 10 15 16 14 10 14 13 20 17 15 15 12 11 10 8 9 8 9 9 9 6 5 5 6
9 5 3 12 12 9 8 3 4 6 4 3 3 3 4 5 7 7 7 8 6 11 12 11 7 3 6 7 10 12 12 10 11 9 10 10 9 9 9 8 8 9 9
10 7 10 12 9 8 8 5 17 8 9 10 5 1 4 2 7 11 11 14 15 13 11 11 13 12 9 8 9 9 7 9 8 6 8 8 7 8 7 7 7 7 8
8 12 9 8 6 5 8 8 8 3 1 4 3 7 8 2 6 11 13 10 13 13 10 10 12 11 11 11 9 9 8 7 4 3 5 5 4 4 6 7 6 3 3
12 12 7 6 7 4 4 5 7 8 7 6 7 9 7 3 3 11 13 12 10 10 9 10 10 11 11 11 11 12 10 10 10 10 10 9 9 6 4 4 2 2 3
8 7 7 7 4 2 5 2 6 8 7 7 7 5 8 7 5 11 9 6 7 8 8 7 7 8 10 11 9 8 9 9 9 9 8 8 7 6 6 5 5 6 4
12 11 9 8 9 11 2 7 5 6 1 5 5 3 2 3 2 4 4 4 5 6 7 6 4 4 6 8 10 11 11 12 11 11 10 7 5 6 6 7 6 5 5
3 4 6 6 5 1 7 5 3 2 5 5 4 2 0 2 5 5 6 5 5 4 4 5 7 7 5 8 10 10 11 10 11 12 11 11 10 8 8 6 6 5 6
9 4 5 4 5 5 5 10 8 6 4 6 4 3 3 4 6 5 5 5 4 5 4 4 5 7 10 10 10 9 10 10 10 10 10 10 10 9 9 8 7 5 6
8 8 8 5 6 6 7 8 2 5 2 3 4 5 6 4 6 6 6 6 5 5 5 6 6 8 9 10 9 9 9 8 9 9 10 10 10 9 8 8 9 8 8
4 4 4 6 5 6 5 6 6 3 4 5 6 6 6 4 6 7 7 5 5 5 5 7 9 12 10 9 8 8 8 8 7 8 12 8 8 9 7 8 9 10 8
6 4 3 4 5 5 4 6 3 6 6 5 6 5 6 6 6 8 7 5 5 6 7 8 7 11 12 13 12 11 8 8 9 11 8 10 10 9 8 8 8 7 8
6 6 4 4 2 6 6 6 6 5 5 5 5 4 6 7 8 7 6 7 6 6 7 7 9 12 14 12 9 5 3 5 9 11 10 8 8 7 8 9 12 9 10
Wind_Direction
171 178 147 151 165 208 262 282 288 312 309 296 293 286 283 294 305 302 301 296 303 300 293 287 291 293 285 278 270 254 245 224 230 248 235 294 330 304 300 300 335 289 190
192 138 155 150 176 257 280 313 329 321 303 290 288 299 300 297 301 295 296 302 298 295 293 286 285 283 283 284 270 258 248 242 224 237 226 228 217 246 277 273 246 309 221
140 178 180 170 187 232 263 277 281 274 277 282 294 299 313 310 302 302 298 318 312 301 289 283 280 282 279 271 266 262 249 239 241 238 238 217 229 236 230 205 231 276 288
168 188 200 188 198 241 264 280 282 286 291 306 322 312 313 312 299 310 323 320 306 293 285 279 277 273 267 269 262 257 253 247 237 232 235 228 221 238 229 220 218 221 251
168 200 204 196 211 247 282 295 302 307 314 330 314 322 307 301 311 340 326 311 298 293 284 272 264 259 262 261 266 258 252 247 236 232 230 221 220 230 224 217 208 222 223
169 207 203 196 231 267 284 295 306 295 332 340 317 314 319 312 335 327 322 313 306 291 288 277 265 262 258 260 258 252 249 242 232 226 230 222 216 218 227 212 193 178 212
192 205 192 205 228 244 277 283 285 326 343 326 323 314 326 331 327 327 319 315 304 292 282 278 271 262 260 260 250 245 237 234 231 234 232 223 220 213 221 226 216 187 212
193 209 194 205 224 247 273 300 313 328 339 321 302 323 338 328 332 322 328 316 321 308 289 274 268 267 259 257 259 251 235 225 221 219 232 241 225 204 222 206 240 256 266
194 203 204 197 211 234 254 314 327 321 322 304 306 333 337 337 333 324 338 326 332 325 302 278 265 262 261 246 249 251 238 229 207 204 213 215 228 193 204 73 248 223 257
198 201 187 181 218 232 265 285 316 295 288 294 313 304 38 341 334 332 340 341 338 330 337 307 271 250 270 274 256 242 237 226 198 195 214 230 218 214 199 215 246 244 244
192 171 170 193 214 222 237 224 271 275 276 291 286 286 59 5 337 334 341 352 345 334 345 346 353 30 34 60 71 11 360 292 189 193 163 205 207 211 219 206 213 226 241
161 184 192 200 221 238 254 265 255 258 276 273 282 19 47 358 348 340 331 348 342 341 351 1 355 16 45 42 55 48 36 41 43 36 16 334 261 257 262 253 255 227 246
161 192 222 227 216 238 236 251 256 262 249 258 8 11 9 339 350 347 327 350 351 342 342 349 346 21 39 45 45 44 39 40 50 58 49 40 31 7 19 356 300 338 279
159 94 333 306 256 244 244 246 246 119 63 7 38 344 346 343 351 350 330 356 354 358 340 333 344 12 44 41 44 48 50 48 51 57 58 49 51 43 37 11 23 349 57
66 73 257 251 231 231 234 358 90 50 55 79 66 20 8 356 337 310 291 338 355 5 359 9 4 12 36 48 58 55 49 42 52 46 54 50 44 48 52 35 44 59 63
175 210 236 265 259 211 147 99 46 86 97 95 91 87 154 180 302 353 357 339 12 11 21 9 12 14 27 29 48 64 68 64 61 52 52 50 47 50 42 55 58 48 59
223 228 225 241 277 271 136 137 136 130 19 130 220 229 236 324 27 28 3 346 17 23 25 14 15 14 16 16 40 50 54 62 84 64 84 71 55 53 45 46 34 25 30
230 228 236 244 255 278 161 153 131 169 167 165 224 236 221 219 54 60 19 8 22 25 35 20 16 17 17 16 18 29 32 37 38 34 33 31 27 23 36 48 67 59 29
223 234 226 243 282 18 351 185 132 142 101 232 153 212 212 223 252 93 63 52 25 20 9 33 25 21 13 8 9 28 35 35 29 29 31 37 29 31 15 13 11 12 339
346 306 71 59 44 2 12 27 77 28 3 80 80 37 85 188 140 59 80 53 44 35 20 11 17 20 34 28 23 24 24 24 19 14 9 18 24 29 27 15 22 9 7
19 241 77 81 73 39 52 43 18 129 228 119 137 101 224 322 54 53 54 48 54 30 28 9 40 20 21 49 34 28 23 21 18 7 0 359 2 21 360 358 3 7 16
265 154 150 190 97 89 84 81 9 239 130 143 149 184 269 66 68 38 51 48 37 43 25 47 35 32 55 50 42 29 22 13 10 6 354 349 351 10 356 351 355 5 21
152 149 155 136 106 100 84 84 178 269 134 154 126 76 66 56 75 43 45 37 19 44 14 50 41 51 62 56 54 40 27 5 355 357 345 343 341 356 346 350 355 14 5
108 105 147 136 124 121 129 152 222 152 50 52 71 66 68 49 70 73 55 24 5 37 37 55 58 61 50 54 47 47 27 4 346 349 333 327 325 342 343 350 3 355 342
148 162 151 186 177 144 186 232 180 54 82 59 66 58 64 65 58 54 53 13 22 39 30 59 49 92 76 57 48 38 20 356 351 338 336 314 312 339 352 357 346 332 329
141 166 185 181 211 63 64 75 74 74 74 74 68 64 63 52 63 49 40 30 17 34 36 46 35 29 62 57 59 73 10 337 343 328 322 297 344 359 21 351 352 338 343